Aérodrome :







RETROUVEZ-NOUS SUR...

 
LOGIN :

S'inscrire | Disclaimer

   EN    FR    IT 

 









Légende :    VFR   VFR Marginal   IFR   IFR Intensif   IFR Très Intensif
Visi : 
Plafond : 
>= 8 km
>= 3000ft
5 à 8 km
1000 à 3000 ft
1500m à 5 km
500 à 1000 ft
800 à 1500m
200 à 500 ft
< 800m
< 200 ft
Symboles :   Orages  Brouillard  Fortes neiges  Fortes précipitations  Vent > 20 kt






- Altitude de l'aérodrome : 95 ft
- Code IATA : GEO


SYCJ - Cheddi Jagan Int.

METARs EXPIRÉS :
  • 011200Z 08008KT 040V100 9999 FEW016 28/24 Q1015 NOSIG
  • 011100Z 05004KT 9999 FEW016 SCT039 26/24 Q1014 NOSIG

TAF TAF SYCJ
Valide du 01 à 12h jusqu'au 02 à 12h UTC


011114Z 0112/0212 07012KT 9999 BKN019 SCT038
PROB40
TEMPO 0117/0120 5000 SHRA FEW014CB BKN036
BECMG 0123/0201 06004KT 9999 FEW017
FIR SYGC / Amérique du Sud



MET'MAP, la Météo Aéronautique d'un coup d'oeil ! - Copyright ORBIFLY Décembre 2007 - Disclaimer

ORBIFLY MET'MAP TEAM :

Programmation & Développement : Alexandra Zaïnal
Sur une idée originale de : Baudouin d'Aumeries
Assistance à la programmation : Marc-Olivier Méhu
Soutien technique & logistique : Manuel Goepfert

Contact : metmap@orbifly.com




SOURCES & CREDITS :

   NOAA